Regional Weather Roundup
Issued by NWS

Home | Current Version | Previous Version | Text Only | Print | Product List | Glossary On
Versions: 1 2 3 4 5 6 7 8 9 10 11 12 13 14 15 16 17 18 19 20 21 22 23 24 25 26 27 28 29 30 31 32 33 34 35 36 37 38 39 40 41 42 43 44 45 46 47 48 49 50
000
ASUS43 KDTX 090510
RWRMI
MICHIGAN HOURLY REGIONAL WEATHER ROUNDUP
NATIONAL WEATHER SERVICE DETROIT/PONTIAC MI
1200 AM EST TUE FEB 09 2016

NOTE: "FAIR" INDICATES FEW OR NO CLOUDS BELOW 12,000 FEET WITH NO
SIGNIFICANT WEATHER AND/OR OBSTRUCTION TO VISIBILITY.

MIZ047>049-052>055-059>063-066>070-074>076-081>083-090600-
SOUTHEAST LOWER MICHIGAN

CITY           SKY/WX    TMP DP  RH WIND       PRES   REMARKS
ADRIAN         CLOUDY    32  27  81 NW10      29.59S WCI  24
ALMA           LGT SNOW  33  31  93 NW6       29.57S WCI  27
ANN ARBOR      CLOUDY    31  28  89 W10       29.56F WCI  22
BAD AXE        LGT SNOW  33  33  99 NW9       29.50F VSB 1   WCI  25
CARO           CLOUDY    34  32  93 W5        29.52S WCI  30
DETROIT CITY   CLOUDY    35  27  72 W8        29.55F WCI  29
DETROIT        CLOUDY    33  28  81 W9        29.57F WCI  25
FLINT          CLOUDY    36  29  75 W8        29.55F WCI  30
GROSSE ILE     CLOUDY    34  30  86 CALM      29.56S
HILLSDALE      CLOUDY    29  27  94 W10       29.58F WCI  19
HOWELL         CLOUDY    33  32  96 W8        29.55F WCI  25

CITY           SKY/WX    TMP DP  RH WIND       PRES   REMARKS
JACKSON        CLOUDY    31  27  85 W10       29.57F WCI  22
LAMBERTVILLE   CLOUDY    33  28  83 W6        29.60S WCI  27
LANSING        CLOUDY    33  29  85 W8        29.58F WCI  26
LAPEER         LGT SNOW  33  31  92 W7        29.53S WCI  27
MASON          LGT SNOW  33  31  92 W6        29.57S WCI  27
MONROE         MOCLDY    32  29  87 W7        29.57S WCI  26
MT. CLEMENS    LGT RAIN  35  31  83 W13       29.53S WCI  27
PONTIAC        FLURRIES  33  29  85 W9        29.53F WCI  25
PORT HOPE        N/A     33  32  96 N3        29.49F
PORT HURON     FLURRIES  34  32  93 SW6       29.52F WCI  29
TRI CITIES     LGT SNOW  35  31  85 NW7       29.55F FOG     WCI  29
MIDLAND        FLURRIES  33  32  96 NW6       29.55S WCI  27
TROY           CLOUDY    36  29  75 W8        29.56F WCI  29
SAGINAW HB     LGT SNOW  34  32  93 W8        29.54F WCI  27
$$
MIZ043>046-050>051-056>058-064>065-071>073-077>080-090600-
SOUTHWEST LOWER MICHIGAN

CITY           SKY/WX    TMP DP  RH WIND       PRES   REMARKS
BATTLE CREEK   FLURRIES  30  27  88 W9        29.60F WCI  22
BENTON HARBOR  LGT SNOW  30  27  88 W16G26    29.66F FOG     WCI  19
BIG RAPIDS     CLOUDY    32  29  90 N9        29.58S WCI  24
COLDWATER      FLURRIES  29  28  97 W10       29.61S WCI  19
FREMONT        CLOUDY    31  30  95 N14G20    29.61R WCI  21
HOLLAND        CLOUDY    33  31  92 CALM      29.61S
GRAND RAPIDS   CLOUDY    33  31  92 NW6       29.60S FOG     WCI  28
IONIA          CLOUDY    32  30  92 W8        29.57F WCI  25
KALAMAZOO      CLOUDY    30  26  85 W9        29.61F WCI  22
LUDINGTON      CLOUDY    27  24  89 N14G25    29.67S WCI  15
MARSHALL       CLOUDY    31  28  88 W8        29.59S WCI  23
MOUNT PLEASANT CLOUDY    34  29  83 NW7       29.56S WCI  28
MUSKEGON       CLOUDY    33  28  81 N10       29.62S WCI  25
SOUTH HAVEN    LGT SNOW  32  32  99 NW12G17   29.62F WCI  23
$$
MIZ016>042-090600-
NORTHERN LOWER MICHIGAN

CITY           SKY/WX    TMP DP  RH WIND       PRES   REMARKS
ALPENA         LGT SNOW  32  29  88 N16       29.57S FOG     WCI  21
BEAVER ISLAND  CLOUDY    23  19  85 NW9       29.66S WCI  13
BELLAIRE       CLOUDY    27  24  87 N6        29.65S WCI  21
CADILLAC       CLOUDY    27  24  91 NW13G18   29.58S WCI  16
CHARLEVOIX     CLOUDY    26  23  88 NW13G18   29.68S WCI  15
FRANKFORT      CLOUDY    26  21  82 N12G17    29.68S WCI  15
GAYLORD        LGT SNOW  27  24  89 VRB5      29.57F FOG     WCI  22
GRAYLING       CLOUDY    28  25  88 NW10G17   29.59S WCI  19
HARBOR SPRINGS CLOUDY    26  22  87 NW6       29.63S WCI  19
HOUGHTON LAKE  CLOUDY    28  26  92 NW15      29.57S WCI  16
MANISTEE       CLOUDY    27  19  74 N9G20     29.67S WCI  17
OSCODA         LGT SNOW  32  32  99 NW8       29.52F WCI  25
PELLSTON       CLOUDY    26  21  81 NW13      29.63F WCI  15
ROGERS CITY    LGT SNOW  30  27  91 NW10G21   29.60S WCI  21
TRAVERSE CITY  CLOUDY    27  22  81 N12       29.65S WCI  17
$$
MIZ007>008-015-090600-
EASTERN UPPER MICHIGAN

CITY           SKY/WX    TMP DP  RH WIND       PRES   REMARKS
KINROSS        CLOUDY    27  27 100 NW13G21   29.61S WCI  16
MACKINAC ISLAN FLURRIES  26  25  99 NW9       29.62S WCI  16
NEWBERRY       CLOUDY    22  19  87 NW9G17    29.64S WCI  12
S. S. MARIE    FLURRIES  28  24  85 NW12G20   29.61F WCI  18
MUNISING         N/A     20  15  81 N23       29.71S WCI   3
$$
MIZ004>006-011>014-085-090600-
CENTRAL UPPER MICHIGAN

CITY           SKY/WX    TMP DP  RH WIND       PRES   REMARKS
MANISTIQUE     CLOUDY    20  14  78 NW12G21   29.67F WCI   8
ESCANABA       CLEAR     16   7  67 NW8       29.73S WCI   5
MENOMINEE      CLOUDY    18  10  73 N8        29.75S WCI   7
SAWYER-GWINN   FLURRIES  12   8  83 N14       29.70S WCI  -3
$$
MIZ001>003-009>011-084-090600-
WESTERN UPPER MICHIGAN

CITY           SKY/WX    TMP DP  RH WIND       PRES   REMARKS
IRON MOUNTAIN  CLOUDY    13   5  70 NW17      29.71F WCI  -4
HOUGHTON       CLOUDY    12   6  77 N15       29.76F HAZE    WCI  -4
COPPER HARBOR    N/A     17  13  84 NE24G31   29.77S WCI  -1
IRONWOOD       CLOUDY    12   9  85 N14G20    29.79S WCI  -3
$$

ABBREVIATIONS USED IN REMARKS
   TC - TEMPERATURE IN CELSIUS
  WCI - WIND CHILL INDEX
   HX - HEAT INDEX
  VSB - VISIBILITY




USA.gov is the U.S. government's official web portal to all federal, state and local government web resources and services.